Regional Weather Roundup
Issued by NWS

Home | Current Version | Previous Version | Text Only | Print | Product List | Glossary Off
Versions: 1 2 3 4 5 6 7 8 9 10 11 12 13 14 15 16 17 18 19 20 21 22 23 24 25 26 27 28 29 30 31 32 33 34 35 36 37 38 39 40 41 42 43 44 45 46 47 48 49 50

000
ASUS43 KLOT 021221
RWRIL

ILLINOIS REGIONAL WEATHER ROUNDUP
NATIONAL WEATHER SERVICE CHICAGO/ROMEOVILLE IL
700 AM CDT SUN AUG 02 2015

NOTE: "FAIR" INDICATES FEW OR NO CLOUDS BELOW 12,000 FEET WITH NO
SIGNIFICANT WEATHER AND/OR OBSTRUCTIONS TO VISIBILITY.

* THESE STATIONS ARE NOT UNDER NWS QUALITY CONTROL. THEY ALSO MAY NOT
  REPORT WEATHER SUCH AS PRECIPITATION OR FOG.

ILZ001-002-007-009-015-016-024-021300-
NORTHWEST ILLINOIS

CITY           SKY/WX    TMP DP  RH WIND       PRES   REMARKS
MOLINE         SUNNY     71  64  78 SW9       29.87R
6HR MIN TEMP:  69; 6HR MAX TEMP:  75;

STERLING*      SUNNY     72  66  83 SW5       29.83S
SAVANNA*       SUNNY     70  68  93 SE6       29.84S
$$

ILZ003-004-008-010-011-017-018-021300-
NORTH CENTRAL ILLINOIS

CITY           SKY/WX    TMP DP  RH WIND       PRES   REMARKS
ROCKFORD       MOSUNNY   70  67  90 SW7       29.85S
6HR MIN TEMP:  68; 6HR MAX TEMP:  70;

FREEPORT*      SUNNY     70  68  94 SW12      29.85S
ROCHELLE*      SUNNY     67  66  96 S7        29.86F
DE KALB*       SUNNY     70  67  92 SW9       29.87S
PERU*          SUNNY     71  66  85 W7        29.88S
$$

ILZ005-006-012>014-019>023-021300-
NORTHEAST ILLINOIS

CITY           SKY/WX    TMP DP  RH WIND       PRES   REMARKS
CHICAGO-OHARE  MOSUNNY   72  67  84 SW10      29.85S
6HR MIN TEMP:  71; 6HR MAX TEMP:  74;

CHICAGO-MIDWAY MOSUNNY   73  66  78 SW9       29.86S
6HR MIN TEMP:  73; 6HR MAX TEMP:  76;

AURORA         SUNNY     70  66  87 S7        29.87F
6HR MIN TEMP:  67; 6HR MAX TEMP:  70;

LANSING*       SUNNY     68  65  89 S6        29.88F
JOLIET*        SUNNY     71  68  88 SW5       29.88S
WAUKEGAN       MOSUNNY   72  69  90 SW12      29.83S
6HR MIN TEMP:  70; 6HR MAX TEMP:  75;

DUPAGE AIRPORT SUNNY     70  67  90 SW12      29.85F
6HR MIN TEMP:  67; 6HR MAX TEMP:  71;

KANKAKEE*      SUNNY     68  64  88 SW6       29.91S
WHEELING       MOSUNNY   72  67  84 S10       29.86S
6HR MIN TEMP:  72; 6HR MAX TEMP:  76;

MORRIS*        SUNNY     69  66  89 SW7       29.87S
ROMEOVILLE*    SUNNY     70  66  88 SW7       29.87S
NORTHERLY ISL    N/A     73  66  78 S2          N/A
$$

LMZ740>746-021300-
SOUTHERN LAKE MICHIGAN

STATION/POSITION SKY/WX   TEMP    WIND        PRES    VSBY  WAVE
                          AIR SEA DIR/SP/G                  HT/PER
                          (F)     (DEG/KT/KT) (MB)    (MI)  (FT/S)
HARRISON CRIB              73     210/ 18/ 21   N/A
BURNHAM HARBOR             73     210/  6/  9   N/A
CALUMET HARBOR             70     200/  5/  7   N/A
BURNS HARBOR               71     220/  9/ 13 1012.5S
MICHIGAN CITY              71     180/ 11/ 13   N/A
MICHIGAN CITY 6N           72 73  220/ 10/ 14   N/A           2/ 3
ST. JOSEPH                 72 73  240/ 14/ 17   N/A           2/ 4
$$

ILZ025>027-034>036-040-047-049-050-058-095>099-021300-
WEST-CENTRAL ILLINOIS

CITY           SKY/WX    TMP DP  RH WIND       PRES   REMARKS
QUINCY         PTCLDY    70  67  90 S8        29.92R
GALESBURG*     SUNNY     65  64  96 S7        29.90S
MACOMB*        PTCLDY    69  66  92 SW5       29.94R
JACKSONVILLE*  CLEAR     74  70  89 SW5       29.93S
PITTSFIELD*    PTCLDY    71  67  87 SW5       29.94R
$$

ILZ028>032-037-038-041>044-048-051>054-059>061-021300-
CENTRAL ILLINOIS

CITY           SKY/WX    TMP DP  RH WIND       PRES   REMARKS
PONTIAC        SUNNY     70  67  89 S8        29.91R
BLOOMINGTON    SUNNY     69  66  90 SW12      29.94R
DECATUR        SUNNY     68  63  84 S5        29.95R
PEORIA         SUNNY     71  67  87 S8        29.91R
6HR MIN TEMP:  69; 6HR MAX TEMP:  73;

LACON*         SUNNY     70  67  88 CALM      29.88S
LINCOLN*       SUNNY     68  64  88 CALM      29.93S
SPRINGFIELD    SUNNY     73  68  84 SW6       29.94R
6HR MIN TEMP:  69; 6HR MAX TEMP:  74;

TAYLORVILLE    SUNNY     68  64  88 SW6       29.95R
$$

ILZ033-039-045-046-055>057-062-063-021300-
EAST-CENTRAL ILLINOIS

CITY           SKY/WX    TMP DP  RH WIND       PRES   REMARKS
CHAMPAIGN      SUNNY     66  62  87 SW6       29.95R
DANVILLE*      SUNNY     64  62  92 S5        29.92S
RANTOUL*       SUNNY     70  64  81 SW7       29.93S
MATTOON        SUNNY     70  61  73 SW6       29.95R
PARIS*         SUNNY     66  63  91 S3        29.97R
$$

ILZ079-100>102-021300-
SOUTHWEST ILLINOIS

CITY           SKY/WX    TMP DP  RH WIND       PRES   REMARKS
ALTON          PTCLDY    68  68 100 S6        29.96R
BELLEVILLE     PTCLDY    72  72 100 CALM      29.95R
CAHOKIA*       PTCLDY    73  70  90 CALM      29.95R
SPARTA*        PTCLDY    74  70  85 S7        29.97S
$$

ILZ064>066-069>071-074>076-080>082-084>086-088>090-092>094-021300-
SOUTH-CENTRAL ILLINOIS

CITY           SKY/WX    TMP DP  RH WIND       PRES   REMARKS
CARBONDALE     MOSUNNY   70  67  90 CALM      29.97R
6HR MIN TEMP:  67; 6HR MAX TEMP:  71;

CAIRO*         PTCLDY    69  69  99 CALM      29.98R
EFFINGHAM*     SUNNY     67  62  83 CALM      29.98R
MARION         MOSUNNY   72  66  83 SE6       29.98R
MT. VERNON     SUNNY     70  63  78 CALM      29.98S
CENTRALIA*     SUNNY     71  63  76 S3        29.97R
SALEM*         SUNNY     72  65  76 S3        29.97S
METROPOLIS*    MOSUNNY   68  68 100 CALM      29.99R
$$

ILZ067-068-072-073-078-083-087-091-021300-
SOUTHEAST ILLINOIS

CITY           SKY/WX    TMP DP  RH WIND       PRES   REMARKS
LAWRENCEVILLE  SUNNY     67  64  90 S3        29.97S
FLORA*         SUNNY     67  64  89 CALM      29.98R
FAIRFIELD*     SUNNY     66  65  95 CALM      29.96S
HARRISBURG*    MOSUNNY   67  67 100 CALM      29.98S
ROBINSON*      SUNNY     68  64  88 SE3       29.97S
CARMI*         FOG       68  64  88 CALM      29.97S VSB 3/4
$$

ABBREVIATIONS USED IN REMARKS
   TC - TEMPERATURE IN CELSIUS
  WCI - WIND CHILL INDEX
   HX - HEAT INDEX
  VSB - VISIBILITY
$$



USA.gov is the U.S. government's official web portal to all federal, state and local government web resources and services.